Torna al catalogo

CZ-6A DEB

AttivoPO
NORAD 54927·DEBRIS·🇨🇳 China

Lanciato Nov 11, 2022 da Taiyuan Satellite Launch Center

Loading…

Prossimi Passaggi (prossime 24 ore)

TLE

AggiornatoSource: Space-Track

Epoca: Sep 14, 2026, 05:12 UTC

1 54927U 22151RQ  26257.21690455  .00009336  00000-0  11569-2 0  9997
2 54927  98.6347 337.9047 0059537 339.4501  20.4315 14.81674115203438

Traccia CZ-6A DEB in tempo reale con AllMySat

Download on the App Store